Location: Newark
(7.0858°N, 171.3717°E)
Time: 08:17:09
(UTC+00:00)

A-11 Canister half - Pass Details

Date: 30 July 2021
Orbit: 1526 x 1683 km, 47.3° (Epoch: 23 September)

Event Time Altitude Azimuth Distance (km) Brightness Sun altitude
Rises 09:31:41 0° 310° (NW) 4,743 12.5 -36.8°
Reaches altitude 10° 09:34:53 10° 305° (NW) 3,740 11.8 -37.5°
Maximum altitude 09:43:55 52° 231° (SW) 1,841 9.3 -39.4°
Enters shadow 09:43:57 52° 231° (SW) 1,841 9.3 -39.5°
